Stündliche Wetter Bolshie Klyari

Heute, 21 April, Mittwoch

Zeit Temperatur Niederschläge Wind Luftdruck Luftfeuchtigkeit
00:00 +1°C° 0 mm 6 m/S 759 mmHg 49%
01:00 0°C° 0 mm 7 m/S 759 mmHg 49%
02:00 0°C° 0 mm 7 m/S 759 mmHg 49%
03:00 0°C° 0 mm 8 m/S 758 mmHg 49%
04:00 0°C° 0 mm 8 m/S 758 mmHg 49%
05:00 0°C° 0 mm 8 m/S 758 mmHg 50%
06:00 0°C° 0 mm 9 m/S 757 mmHg 50%
07:00 0°C° 0.1 mm 9 m/S 757 mmHg 54%
08:00 0°C° 0.1 mm 9 m/S 757 mmHg 59%
09:00 0°C° 0.1 mm 9 m/S 757 mmHg 63%
10:00 0°C° 0 mm 9 m/S 757 mmHg 62%
11:00 +1°C° 0 mm 9 m/S 757 mmHg 61%
12:00 +1°C° 0 mm 9 m/S 757 mmHg 60%
13:00 0°C° 0.6 mm 9 m/S 757 mmHg 66%
14:00 0°C° 0.6 mm 9 m/S 757 mmHg 73%
15:00 -1°C° 0.6 mm 9 m/S 757 mmHg 79%
16:00 -1°C° 1.4 mm 9 m/S 756 mmHg 85%
17:00 -2°C° 1.4 mm 8 m/S 756 mmHg 91%
18:00 -2°C° 1.4 mm 8 m/S 756 mmHg 97%
19:00 -2°C° 0.4 mm 8 m/S 756 mmHg 96%
20:00 -1°C° 0.4 mm 8 m/S 756 mmHg 95%
21:00 -1°C° 0.4 mm 8 m/S 756 mmHg 94%
22:00 -1°C° 0 mm 8 m/S 756 mmHg 94%
23:00 -1°C° 0 mm 8 m/S 755 mmHg 95%

Morgen, 22 April, Donnerstag

Zeit Temperatur Niederschläge Wind Luftdruck Luftfeuchtigkeit
00:00 0°C° 0 mm 8 m/S 755 mmHg 95%
01:00 0°C° 0 mm 7 m/S 756 mmHg 95%
02:00 0°C° 0 mm 7 m/S 756 mmHg 96%
03:00 +1°C° 0 mm 6 m/S 756 mmHg 96%
04:00 +1°C° 0 mm 6 m/S 756 mmHg 96%
05:00 +1°C° 0 mm 5 m/S 757 mmHg 97%
06:00 +1°C° 0 mm 5 m/S 757 mmHg 97%
07:00 +2°C° 0 mm 5 m/S 757 mmHg 97%
08:00 +2°C° 0 mm 5 m/S 757 mmHg 96%
09:00 +2°C° 0 mm 5 m/S 757 mmHg 96%
10:00 +3°C° 0 mm 5 m/S 758 mmHg 93%
11:00 +5°C° 0 mm 5 m/S 758 mmHg 91%
12:00 +5°C° 0 mm 6 m/S 758 mmHg 88%
13:00 +6°C° 0 mm 5 m/S 758 mmHg 84%
14:00 +7°C° 0 mm 5 m/S 758 mmHg 80%
15:00 +8°C° 0 mm 5 m/S 757 mmHg 76%
16:00 +8°C° 0 mm 5 m/S 757 mmHg 78%
17:00 +8°C° 0 mm 5 m/S 757 mmHg 79%
18:00 +8°C° 0 mm 6 m/S 757 mmHg 81%
19:00 +7°C° 0 mm 6 m/S 758 mmHg 84%
20:00 +5°C° 0 mm 6 m/S 758 mmHg 88%
21:00 +4°C° 0 mm 6 m/S 758 mmHg 91%
22:00 +5°C° 0 mm 5 m/S 758 mmHg 92%
23:00 +3°C° 0 mm 5 m/S 758 mmHg 93%

übermorgen, 23 April, Freitag

Zeit Temperatur Niederschläge Wind Luftdruck Luftfeuchtigkeit
00:00 +3°C° 0 mm 5 m/S 758 mmHg 94%
01:00 +4°C° 0 mm 4 m/S 758 mmHg 93%
02:00 +4°C° 0 mm 4 m/S 758 mmHg 93%
03:00 +4°C° 0 mm 3 m/S 758 mmHg 93%
04:00 +4°C° 0 mm 3 m/S 759 mmHg 93%
05:00 +4°C° 0 mm 3 m/S 759 mmHg 92%
06:00 +4°C° 0 mm 2 m/S 759 mmHg 92%
07:00 +5°C° 0 mm 3 m/S 759 mmHg 87%
08:00 +7°C° 0 mm 3 m/S 759 mmHg 82%
09:00 +9°C° 0 mm 3 m/S 760 mmHg 77%
10:00 +10°C° 0 mm 3 m/S 759 mmHg 72%
11:00 +11°C° 0 mm 3 m/S 759 mmHg 66%
12:00 +13°C° 0 mm 2 m/S 759 mmHg 61%
13:00 +13°C° 0 mm 2 m/S 759 mmHg 60%
14:00 +13°C° 0 mm 2 m/S 759 mmHg 59%
15:00 +13°C° 0 mm 2 m/S 759 mmHg 58%
16:00 +13°C° 0 mm 2 m/S 758 mmHg 62%
17:00 +12°C° 0 mm 2 m/S 758 mmHg 66%
18:00 +10°C° 0 mm 2 m/S 758 mmHg 71%
19:00 +9°C° 0 mm 2 m/S 758 mmHg 74%
20:00 +9°C° 0 mm 2 m/S 758 mmHg 78%
21:00 +8°C° 0 mm 2 m/S 758 mmHg 82%
22:00 +7°C° 0 mm 2 m/S 757 mmHg 84%
23:00 +7°C° 0 mm 2 m/S 757 mmHg 85%

24 April, Samstag

Zeit Temperatur Niederschläge Wind Luftdruck Luftfeuchtigkeit
00:00 +6°C° 0 mm 2 m/S 757 mmHg 87%
01:00 +5°C° 0 mm 3 m/S 756 mmHg 88%
02:00 +4°C° 0 mm 3 m/S 756 mmHg 89%
03:00 +4°C° 0 mm 3 m/S 755 mmHg 90%
04:00 +4°C° 0 mm 3 m/S 755 mmHg 90%
05:00 +4°C° 0 mm 3 m/S 754 mmHg 91%
06:00 +4°C° 0 mm 4 m/S 754 mmHg 91%
07:00 +5°C° 0 mm 4 m/S 754 mmHg 88%
08:00 +6°C° 0 mm 4 m/S 753 mmHg 85%
09:00 +6°C° 0 mm 4 m/S 753 mmHg 82%
10:00 +7°C° 0 mm 4 m/S 752 mmHg 82%
11:00 +8°C° 0 mm 3 m/S 752 mmHg 81%
12:00 +8°C° 0 mm 3 m/S 752 mmHg 81%
13:00 +8°C° 0 mm 3 m/S 751 mmHg 83%
14:00 +7°C° 0 mm 3 m/S 751 mmHg 85%
15:00 +7°C° 0 mm 3 m/S 751 mmHg 88%
16:00 +7°C° 0 mm 2 m/S 751 mmHg 89%
17:00 +7°C° 0 mm 2 m/S 750 mmHg 90%
18:00 +6°C° 0 mm 2 m/S 750 mmHg 91%
19:00 +6°C° 0 mm 2 m/S 750 mmHg 92%
20:00 +6°C° 0 mm 2 m/S 750 mmHg 93%
21:00 +6°C° 0 mm 2 m/S 749 mmHg 94%
22:00 +6°C° 0 mm 2 m/S 749 mmHg 94%
23:00 +5°C° 0 mm 2 m/S 748 mmHg 94%

25 April, Sonntag

Zeit Temperatur Niederschläge Wind Luftdruck Luftfeuchtigkeit
00:00 +5°C° 0 mm 2 m/S 748 mmHg 94%
01:00 +4°C° 0 mm 3 m/S 748 mmHg 94%
02:00 +4°C° 0 mm 3 m/S 747 mmHg 94%
03:00 +4°C° 0 mm 3 m/S 747 mmHg 93%
04:00 +4°C° 0.9 mm 4 m/S 746 mmHg 94%
05:00 +4°C° 0.9 mm 4 m/S 746 mmHg 95%
06:00 +2°C° 0.9 mm 5 m/S 746 mmHg 96%
07:00 +3°C° 1.1 mm 6 m/S 746 mmHg 91%
08:00 +3°C° 1.1 mm 6 m/S 747 mmHg 87%
09:00 +4°C° 1.1 mm 7 m/S 748 mmHg 83%
10:00 +5°C° 0.1 mm 7 m/S 748 mmHg 73%
11:00 +7°C° 0.1 mm 8 m/S 748 mmHg 64%
12:00 +9°C° 0.1 mm 8 m/S 749 mmHg 55%
13:00 +9°C° 0.1 mm 8 m/S 749 mmHg 52%
14:00 +10°C° 0.1 mm 8 m/S 749 mmHg 50%
15:00 +10°C° 0.1 mm 7 m/S 750 mmHg 47%
16:00 +9°C° 0.1 mm 6 m/S 750 mmHg 51%
17:00 +9°C° 0.1 mm 6 m/S 750 mmHg 54%
18:00 +8°C° 0.1 mm 5 m/S 750 mmHg 57%
19:00 +7°C° 0.1 mm 4 m/S 751 mmHg 62%
20:00 +6°C° 0.1 mm 4 m/S 751 mmHg 68%
21:00 +4°C° 0.1 mm 3 m/S 752 mmHg 73%
22:00 +4°C° 0 mm 3 m/S 752 mmHg 75%
23:00 +3°C° 0 mm 3 m/S 752 mmHg 77%

26 April, Montag

Zeit Temperatur Niederschläge Wind Luftdruck Luftfeuchtigkeit
00:00 +3°C° 0 mm 3 m/S 752 mmHg 79%
01:00 +3°C° 0 mm 3 m/S 753 mmHg 80%
02:00 +2°C° 0 mm 3 m/S 753 mmHg 81%
03:00 +2°C° 0 mm 3 m/S 753 mmHg 82%
04:00 +3°C° 0 mm 2 m/S 753 mmHg 80%
05:00 +4°C° 0 mm 2 m/S 753 mmHg 79%
06:00 +4°C° 0 mm 2 m/S 753 mmHg 78%
07:00 +5°C° 0 mm 2 m/S 754 mmHg 71%
08:00 +7°C° 0 mm 2 m/S 754 mmHg 64%
09:00 +8°C° 0 mm 2 m/S 754 mmHg 57%
10:00 +9°C° 0 mm 2 m/S 754 mmHg 53%
11:00 +9°C° 0 mm 2 m/S 754 mmHg 48%
12:00 +11°C° 0 mm 1 m/S 754 mmHg 43%
13:00 +11°C° 0 mm 1 m/S 753 mmHg 43%
14:00 +12°C° 0 mm 1 m/S 753 mmHg 42%
15:00 +12°C° 0 mm 1 m/S 753 mmHg 41%
16:00 +10°C° 0 mm 2 m/S 753 mmHg 45%
17:00 +10°C° 0 mm 2 m/S 752 mmHg 49%
18:00 +9°C° 0 mm 2 m/S 752 mmHg 53%
19:00 +8°C° 0 mm 2 m/S 752 mmHg 54%
20:00 +7°C° 0 mm 3 m/S 752 mmHg 56%
21:00 +5°C° 0 mm 3 m/S 751 mmHg 57%
22:00 +5°C° 0 mm 3 m/S 751 mmHg 58%
23:00 +5°C° 0 mm 3 m/S 750 mmHg 59%
Mehr zeigen

Wir brauchen deine Erlaubnis

Meteoprog und unser Service Anbieter werden persönliche Daten aufbewahren, so wie Cookies, Geräte Bezeichnung oder ähnliche Technologien von deinem Gerät und Prozess, so wie Persönliche Daten Inhalte und Werbungen, genauso wie social Media und den Verkehr zu analysieren.

  • Aufbewahrung und/oder Zugang zu deiner Geräte Informationen.

    Cookies, Geräte Bezeichnung oder andere Informationen, können aufbewahrt oder Zugang zu deinem Gerät erhalten, für den Grund, der oben angegeben wird.

  • Personalisierte Werbung und Inhalte, Messungen, Einblick in das Publikum und Produkt Entwicklung.

    Werbungen und Inhalte können personalisiert werden, basierend auf ein Profil. Mehr Daten können besser personalisierte Werbungen und Inhalte hinzufügen. Werbung und Inhalte können gezeigt und gemessen werden. Einblicke über das Publikum, welche die Werbung gesehen haben und den Inhalt, können abgeleitet werden. So wie Daten können genutzt werden, um es zu verbessern oder die Benutzer Erfahrung zu verbessern das System und die Software.

Wenn du “Ich stimme zu” klickst, erlaubst du uns, die Cookies zu benutzen die Geräte Bezeichnung, den Web oder ähnliche Technologien zu benutzen. Deine Settings, können in deinem Gerät bei deinem Browser geändert werden.

Für den bestimmten Zweck, berechtigten Interessen beruhen darauf, mehr als auf den Inhalt. Du kannst mehr darüber in unseren Privaten und Cookie Politik lesen.